| time (UTC) | temp F | wind direction | speed MPH | gust MPH | rain 1hr in | rain 24hr in | rain mn in | humidity % | barometer mb |
| 20260510234436 | 52 | 296 | 0.0 | 5.0 | 0.00 | 0.31 | 0.00 | 48 | 1018.6 |
| 20260510233434 | 52 | 105 | 0.0 | 5.0 | 0.00 | 0.31 | 0.00 | 46 | 1018.5 |
| 20260510232436 | 53 | 0.0 | 0.0 | 0.00 | 0.31 | 0.00 | 46 | 1018.5 | |
| 20260510231434 | 53 | 0.0 | 0.0 | 0.00 | 0.31 | 0.00 | 45 | 1018.2 | |
| 20260510230436 | 54 | 18 | 0.0 | 1.0 | 0.00 | 0.31 | 0.00 | 43 | 1018.3 |
| 20260510225434 | 55 | 265 | 0.0 | 4.0 | 0.00 | 0.31 | 0.00 | 42 | 1018.1 |
| 20260510224436 | 55 | 302 | 0.0 | 1.0 | 0.00 | 0.31 | 0.00 | 42 | 1018.1 |
| 20260510223454 | 55 | 306 | 0.0 | 7.0 | 0.00 | 0.31 | 0.00 | 41 | 1017.9 |
| 20260510222436 | 56 | 6 | 0.0 | 1.0 | 0.00 | 0.31 | 0.00 | 42 | 1018.0 |
| 20260510221454 | 55 | 75 | 0.0 | 14.0 | 0.00 | 0.31 | 0.00 | 44 | 1017.9 |
| 20260510220436 | 56 | 162 | 0.0 | 4.0 | 0.00 | 0.31 | 0.00 | 42 | 1017.9 |
| 20260510215434 | 56 | 351 | 0.0 | 4.0 | 0.00 | 0.31 | 0.00 | 44 | 1017.6 |
| 20260510214436 | 56 | 32 | 0.0 | 7.0 | 0.00 | 0.31 | 0.00 | 44 | 1017.7 |
| 20260510213434 | 56 | 51 | 0.0 | 1.0 | 0.00 | 0.31 | 0.00 | 42 | 1017.4 |
| 20260510212456 | 57 | 266 | 0.0 | 11.0 | 0.00 | 0.31 | 0.00 | 42 | 1017.7 |
| 20260510211434 | 56 | 37 | 1.0 | 11.0 | 0.00 | 0.31 | 0.00 | 42 | 1017.3 |
| 20260510210456 | 57 | 23 | 1.0 | 8.0 | 0.00 | 0.31 | 0.00 | 40 | 1017.2 |
| 20260510205434 | 56 | 335 | 0.0 | 4.0 | 0.00 | 0.31 | 0.00 | 42 | 1017.0 |
| 20260510204436 | 56 | 292 | 1.0 | 5.0 | 0.00 | 0.31 | 0.00 | 42 | 1017.2 |
| 20260510203434 | 56 | 334 | 1.0 | 10.0 | 0.00 | 0.31 | 0.00 | 40 | 1016.8 |
| 20260510202436 | 57 | 317 | 1.0 | 10.0 | 0.00 | 0.31 | 0.00 | 41 | 1016.6 |
| 20260510201434 | 57 | 254 | 1.0 | 8.0 | 0.00 | 0.31 | 0.00 | 42 | 1016.3 |
| 20260510200436 | 57 | 301 | 2.0 | 12.0 | 0.00 | 0.31 | 0.00 | 44 | 1016.6 |
| 20260510195454 | 57 | 278 | 0.0 | 4.0 | 0.00 | 0.31 | 0.00 | 49 | 1016.5 |
| 20260510194436 | 56 | 337 | 0.0 | 7.0 | 0.00 | 0.31 | 0.00 | 51 | 1016.4 |
| 20260510193434 | 57 | 340 | 0.0 | 7.0 | 0.00 | 0.31 | 0.00 | 50 | 1016.4 |
| 20260510192436 | 57 | 295 | 1.0 | 10.0 | 0.00 | 0.31 | 0.00 | 51 | 1016.7 |
| 20260510191434 | 57 | 315 | 0.0 | 4.0 | 0.00 | 0.31 | 0.00 | 49 | 1016.3 |
| 20260510190436 | 57 | 349 | 0.0 | 8.0 | 0.00 | 0.31 | 0.00 | 50 | 1016.4 |
| 20260510185434 | 57 | 326 | 1.0 | 19.0 | 0.00 | 0.31 | 0.00 | 50 | 1016.3 |
| 20260510184436 | 57 | 41 | 0.0 | 4.0 | 0.00 | 0.31 | 0.00 | 55 | 1016.3 |
| 20260510183434 | 56 | 0 | 1.0 | 11.0 | 0.00 | 0.31 | 0.00 | 52 | 1016.1 |
| 20260510182436 | 58 | 328 | 2.0 | 8.0 | 0.00 | 0.31 | 0.00 | 49 | 1016.3 |
| 20260510181434 | 57 | 317 | 0.0 | 8.0 | 0.00 | 0.31 | 0.00 | 48 | 1015.8 |
| 20260510175454 | 58 | 332 | 1.0 | 11.0 | 0.00 | 0.31 | 0.00 | 48 | 1015.5 |
| 20260510174456 | 57 | 30 | 0.0 | 5.0 | 0.00 | 0.31 | 0.00 | 51 | 1015.9 |
| 20260510173434 | 57 | 333 | 0.0 | 1.0 | 0.00 | 0.31 | 0.00 | 53 | 1015.6 |
| 20260510172436 | 58 | 280 | 0.0 | 8.0 | 0.00 | 0.31 | 0.00 | 54 | 1015.6 |
| 20260510171434 | 57 | 352 | 0.0 | 7.0 | 0.00 | 0.31 | 0.00 | 54 | 1015.2 |
| 20260510170437 | 57 | 309 | 0.0 | 1.0 | 0.00 | 0.31 | 0.00 | 52 | 1015.6 |
| 20260510165434 | 57 | 341 | 0.0 | 1.0 | 0.00 | 0.31 | 0.00 | 53 | 1015.5 |
| 20260510164434 | 55 | 0.0 | 0.0 | 0.00 | 0.31 | 0.00 | 53 | 1015.5 | |
| 20260510163454 | 56 | 0.0 | 0.0 | 0.00 | 0.31 | 0.00 | 55 | 1015.4 | |
| 20260510162434 | 56 | 327 | 0.0 | 7.0 | 0.00 | 0.31 | 0.00 | 54 | 1015.5 |
| 20260510161434 | 56 | 339 | 0.0 | 2.0 | 0.00 | 0.31 | 0.00 | 54 | 1015.3 |
| 20260510160454 | 56 | 286 | 1.0 | 5.0 | 0.00 | 0.31 | 0.00 | 54 | 1015.3 |
| 20260510155434 | 55 | 0.0 | 0.0 | 0.00 | 0.31 | 0.00 | 57 | 1015.2 | |
| 20260510154434 | 55 | 321 | 0.0 | 4.0 | 0.00 | 0.31 | 0.00 | 60 | 1015.8 |
| 20260510153434 | 55 | 339 | 0.0 | 5.0 | 0.00 | 0.31 | 0.00 | 62 | 1015.3 |
| 20260510152435 | 55 | 318 | 0.0 | 2.0 | 0.00 | 0.31 | 0.00 | 62 | 1015.5 |
| 20260510151434 | 54 | 344 | 0.0 | 8.0 | 0.00 | 0.31 | 0.00 | 63 | 1015.1 |
| 20260510150434 | 53 | 0.0 | 0.0 | 0.00 | 0.31 | 0.00 | 68 | 1014.9 | |
| 20260510145434 | 54 | 0.0 | 0.0 | 0.00 | 0.31 | 0.00 | 70 | 1014.8 | |
| 20260510144434 | 53 | 0.0 | 0.0 | 0.00 | 0.31 | 0.00 | 69 | 1014.7 | |
| 20260510143454 | 54 | 329 | 0.0 | 4.0 | 0.00 | 0.31 | 0.00 | 68 | 1014.4 |
| 20260510142434 | 53 | 0.0 | 0.0 | 0.00 | 0.31 | 0.00 | 69 | 1014.4 | |
| 20260510141434 | 53 | 0.0 | 0.0 | 0.00 | 0.31 | 0.00 | 71 | 1014.1 | |
| 20260510140434 | 52 | 299 | 0.0 | 2.0 | 0.00 | 0.31 | 0.00 | 70 | 1014.1 |
| 20260510135434 | 51 | 0.0 | 0.0 | 0.00 | 0.31 | 0.00 | 72 | 1014.1 | |
| 20260510134434 | 51 | 324 | 0.0 | 1.0 | 0.00 | 0.31 | 0.00 | 72 | 1014.1 |
| 20260510133434 | 51 | 0.0 | 0.0 | 0.00 | 0.31 | 0.00 | 74 | 1013.9 | |
| 20260510132434 | 50 | 0.0 | 0.0 | 0.00 | 0.31 | 0.00 | 74 | 1014.1 | |
| 20260510131434 | 50 | 0.0 | 0.0 | 0.00 | 0.31 | 0.00 | 76 | 1013.9 | |
| 20260510130434 | 50 | 0.0 | 0.0 | 0.00 | 0.31 | 0.00 | 79 | 1014.1 | |
| 20260510125434 | 49 | 0.0 | 0.0 | 0.00 | 0.31 | 0.00 | 80 | 1014.0 | |
| 20260510124434 | 49 | 0.0 | 0.0 | 0.00 | 0.31 | 0.00 | 81 | 1014.0 | |
| 20260510123434 | 49 | 0.0 | 0.0 | 0.00 | 0.31 | 0.00 | 81 | 1013.6 | |
| 20260510122454 | 49 | 0.0 | 0.0 | 0.00 | 0.31 | 0.00 | 85 | 1013.9 | |
| 20260510121434 | 49 | 0.0 | 0.0 | 0.00 | 0.31 | 0.00 | 88 | 1014.1 | |
| 20260510120437 | 49 | 0.0 | 0.0 | 0.00 | 0.31 | 0.00 | 89 | 1013.7 | |
| 20260510115434 | 49 | 0.0 | 0.0 | 0.00 | 0.31 | 0.00 | 90 | 1013.3 | |
| 20260510114434 | 48 | 0.0 | 0.0 | 0.00 | 0.31 | 0.00 | 90 | 1013.3 | |
| 20260510113434 | 48 | 0.0 | 0.0 | 0.00 | 0.31 | 0.00 | 93 | 1012.5 | |
| 20260510112514 | 48 | 0.0 | 0.0 | 0.00 | 0.31 | 0.00 | 94 | 1012.5 | |
| 20260510111435 | 47 | 0.0 | 0.0 | 0.00 | 0.31 | 0.00 | 95 | 1012.8 | |
| 20260510110434 | 47 | 0.0 | 0.0 | 0.00 | 0.31 | 0.00 | 98 | 1012.1 | |
| 20260510105434 | 47 | 0.0 | 0.0 | 0.00 | 0.31 | 0.00 | 99 | 1010.7 | |
| 20260510104434 | 47 | 0.0 | 0.0 | 0.00 | 0.31 | 0.00 | 99 | 1011.5 | |
| 20260510103455 | 48 | 0.0 | 0.0 | 0.00 | 0.31 | 0.00 | 99 | 1010.1 | |
| 20260510102434 | 48 | 0.0 | 0.0 | 0.00 | 0.31 | 0.00 | 99 | 1011.1 | |
| 20260510101435 | 48 | 0.0 | 0.0 | 0.00 | 0.31 | 0.00 | 99 | 1009.9 | |
| 20260510100434 | 49 | 0.0 | 0.0 | 0.00 | 0.31 | 0.00 | 99 | 1011.2 | |
| 20260510095435 | 50 | 0.0 | 0.0 | 0.00 | 0.31 | 0.00 | 99 | 1009.4 | |
| 20260510094434 | 50 | 0.0 | 0.0 | 0.00 | 0.31 | 0.00 | 99 | 1010.4 | |
| 20260510093435 | 50 | 0.0 | 0.0 | 0.00 | 0.31 | 0.00 | 99 | 1008.9 | |
| 20260510092434 | 50 | 0.0 | 0.0 | 0.00 | 0.31 | 0.00 | 99 | 1010.0 | |
| 20260510091435 | 50 | 0.0 | 0.0 | 0.00 | 0.31 | 0.00 | 99 | 1008.9 | |
| 20260510090434 | 49 | 0.0 | 0.0 | 0.00 | 0.31 | 0.00 | 99 | 1009.6 | |
| 20260510085435 | 49 | 0.0 | 0.0 | 0.00 | 0.31 | 0.00 | 99 | 1008.6 | |
| 20260510084434 | 49 | 0.0 | 0.0 | 0.00 | 0.31 | 0.00 | 99 | 1009.6 | |
| 20260510083435 | 48 | 0.0 | 0.0 | 0.00 | 0.31 | 0.00 | 99 | 1008.4 | |
| 20260510082434 | 48 | 0.0 | 0.0 | 0.00 | 0.31 | 0.00 | 99 | 1009.7 | |
| 20260510081455 | 47 | 0.0 | 0.0 | 0.00 | 0.31 | 0.00 | 99 | 1008.1 | |
| 20260510080437 | 47 | 0.0 | 0.0 | 0.00 | 0.31 | 0.00 | 99 | 1008.8 | |
| 20260510075435 | 47 | 0.0 | 0.0 | 0.00 | 0.31 | 0.00 | 99 | 1007.7 | |
| 20260510074454 | 47 | 0.0 | 0.0 | 0.00 | 0.31 | 0.00 | 99 | 1008.8 | |
| 20260510073435 | 46 | 0.0 | 0.0 | 0.00 | 0.31 | 0.00 | 99 | 1007.7 | |
| 20260510072454 | 46 | 0.0 | 0.0 | 0.00 | 0.31 | 0.00 | 99 | 1009.0 | |
| 20260510071435 | 46 | 0.0 | 0.0 | 0.00 | 0.31 | 0.00 | 99 | 1008.8 | |
| 20260510070434 | 46 | 0.0 | 0.0 | 0.00 | 0.31 | 0.00 | 99 | 1008.7 | |
| 20260510065435 | 47 | 0.0 | 0.0 | 0.00 | 0.31 | 0.00 | 99 | 1007.2 | |
| 20260510064434 | 47 | 0.0 | 0.0 | 0.00 | 0.31 | 0.00 | 99 | 1008.4 | |
| 20260510063437 | 47 | 0.0 | 0.0 | 0.00 | 0.31 | 0.00 | 99 | 1008.7 | |
| 20260510062437 | 47 | 0.0 | 0.0 | 0.00 | 0.31 | 0.00 | 99 | 1009.3 | |
| 20260510061435 | 47 | 0.0 | 0.0 | 0.00 | 0.31 | 0.00 | 99 | 1007.2 | |
| 20260510060514 | 47 | 0.0 | 0.0 | 0.00 | 0.31 | 0.00 | 99 | 1008.6 | |
| 20260510055456 | 48 | 0.0 | 0.0 | 0.00 | 0.31 | 0.00 | 99 | 1007.8 | |
| 20260510054434 | 48 | 0.0 | 0.0 | 0.00 | 0.31 | 0.00 | 99 | 1008.7 | |
| 20260510053435 | 49 | 0.0 | 0.0 | 0.00 | 0.31 | 0.00 | 99 | 1007.8 | |
| 20260510052517 | 49 | 0.0 | 0.0 | 0.00 | 0.31 | 0.00 | 99 | 1009.3 | |
| 20260510051435 | 50 | 0.0 | 0.0 | 0.00 | 0.31 | 0.00 | 99 | 1007.5 | |
| 20260510050434 | 50 | 0.0 | 0.0 | 0.00 | 0.31 | 0.00 | 99 | 1008.5 | |
| 20260510045434 | 51 | 0.0 | 0.0 | 0.00 | 0.31 | 0.00 | 99 | 1007.3 | |
| 20260510044434 | 51 | 0.0 | 0.0 | 0.02 | 0.31 | 0.00 | 99 | 1008.2 | |
| 20260510043435 | 51 | 0.0 | 0.0 | 0.03 | 0.31 | 0.00 | 99 | 1007.6 | |
| 20260510042437 | 52 | 0.0 | 0.0 | 0.05 | 0.31 | 0.00 | 99 | 1007.9 | |
| 20260510041435 | 52 | 0.0 | 0.0 | 0.08 | 0.31 | 0.00 | 99 | 1008.0 | |
| 20260510040434 | 52 | 0.0 | 0.0 | 0.10 | 0.31 | 0.00 | 99 | 1007.9 | |
| 20260510035435 | 52 | 0.0 | 0.0 | 0.17 | 0.31 | 0.31 | 99 | 1008.3 | |
| 20260510034433 | 52 | 0.0 | 0.0 | 0.18 | 0.29 | 0.29 | 99 | 1007.9 | |
| 20260510033435 | 52 | 281 | 0.0 | 4.0 | 0.21 | 0.28 | 0.28 | 99 | 1007.8 |
| 20260510032433 | 52 | 0.0 | 0.0 | 0.22 | 0.26 | 0.26 | 99 | 1008.1 | |
| 20260510031435 | 52 | 0.0 | 0.0 | 0.23 | 0.23 | 0.23 | 99 | 1007.9 | |
| 20260510030434 | 52 | 0.0 | 0.0 | 0.21 | 0.21 | 0.21 | 99 | 1008.7 | |
| 20260510025435 | 52 | 0.0 | 0.0 | 0.14 | 0.14 | 0.14 | 99 | 1008.6 | |
| 20260510024433 | 53 | 0.0 | 0.0 | 0.11 | 0.11 | 0.11 | 98 | 1009.4 | |
| 20260510023435 | 53 | 282 | 0.0 | 4.0 | 0.06 | 0.06 | 0.06 | 96 | 1009.4 |
| 20260510022437 | 56 | 0.0 | 0.0 | 0.03 | 0.03 | 0.03 | 92 | 1010.1 | |
| 20260510021435 | 58 | 0.0 | 0.0 | 0.00 | 0.00 | 0.00 | 86 | 1006.9 | |
| 20260510020434 | 57 | 0.0 | 0.0 | 0.00 | 0.00 | 0.00 | 86 | 1006.8 | |
| 20260510015435 | 57 | 0.0 | 0.0 | 0.00 | 0.00 | 0.00 | 86 | 1006.4 | |
| 20260510014453 | 57 | 0.0 | 0.0 | 0.00 | 0.00 | 0.00 | 86 | 1006.7 | |
| 20260510013435 | 57 | 0.0 | 0.0 | 0.00 | 0.00 | 0.00 | 86 | 1006.0 | |
| 20260510012453 | 57 | 0.0 | 0.0 | 0.00 | 0.00 | 0.00 | 86 | 1006.4 | |
| 20260510011435 | 57 | 0.0 | 0.0 | 0.00 | 0.00 | 0.00 | 86 | 1006.0 | |
| 20260510010433 | 57 | 0.0 | 0.0 | 0.00 | 0.00 | 0.00 | 85 | 1006.1 | |
| 20260510005435 | 57 | 0.0 | 0.0 | 0.00 | 0.00 | 0.00 | 85 | 1005.7 | |
| 20260510004513 | 57 | 0.0 | 0.0 | 0.00 | 0.00 | 0.00 | 85 | 1006.0 | |
| 20260510003435 | 57 | 0.0 | 0.0 | 0.00 | 0.00 | 0.00 | 84 | 1005.8 | |
| 20260510002433 | 58 | 0.0 | 0.0 | 0.00 | 0.00 | 0.00 | 83 | 1005.8 | |
| 20260510001455 | 58 | 0.0 | 0.0 | 0.00 | 0.00 | 0.00 | 82 | 1005.7 | |
| 20260510000433 | 59 | 0.0 | 0.0 | 0.00 | 0.00 | 0.00 | 81 | 1005.9 | |
| 20260509235455 | 59 | 0.0 | 0.0 | 0.00 | 0.00 | 0.00 | 80 | 1005.7 |